星链-31566 (STARLINK-31566 )

导读 | 星芒AI

STARLINK-31566 是 SpaceX Starlink 卫星互联网项目中的一颗低轨卫星,属于第5批部署的星链卫星之一。该卫星于2020年11月发射,运行在约550公里高度的近地轨道,旨在为全球用户提供高速互联网服务。Starlink 项目致力于构建由数千颗卫星组成的星座,以改善偏远地区的网络接入。STARLINK-31566 采用先进推进系统和激光通信技术,提高数据传输效率并减少轨道间干扰。该项目在提升全球通信能力的同时,也引发了对太空拥堵和光污染的担忧。

基本信息
目录编号:
59475
目录名称:
STARLINK-31566
国际标识:
2024-068W
轨道中心:
EARTH
卫星名称:
星链-31566
卫星全名:
星链-31566 (STARLINK-31566 )
卫星状态:
在轨 (已飞行576 天)
发射日期:
2024-04-10 UTC
国别 :
美国 (US)
星等 :
--
轨道信息
数据来源 国际轨道数据 AOE轨道数据
星历时间 2025-11-06T21:31:19+0800
1天前
查看轨道信息
2025-11-03T14:00:00+0800
4天前
查看轨道信息
半长轴 6861.132km 6861.179km
偏心率 0.000175 0.0001077
轨道倾角 43.004° 42.999°
近地点辐角 11.973° 274.830°
升交点赤经 9.738° 28.454°
平近点角 348.116° 202.425°
近地点 481.796km 482.305km
远地点 484.198km 483.783km
周期 94.266分钟 94.267分钟
每日圈数 15.275984 15.275827
详细信息
固有亮度:
5
最大亮度:
1.5
卫星平台:
Starlink v2.0 mini
覆盖范围:
全球
运营商:
太空探索技术公司
运营商所在国:
美国
制造商(研发单位):
太空探索技术公司
制造商所在国:
美国
使用方式:
暂无
卫星简介
星链(Starlink)计划是由太空探索技术公司(SpaceX)提出的一个巨型低轨卫星互联网星座项目,计划在2019年至2024年间在太空搭建由约1.2万颗卫星组成的“星链”网络,其中1584颗将部署在地球上空550千米处的近地轨道,并从2020年开始工作。该卫星仍在工作。
2D轨道图
3D轨道图
轨道高度分析图
轨道倾角分析图
轨道综合分析图
查看轨道综合分析图